Location: Doschendorf
(50.0069°N, 11.0602°E)
Time: 06:08:45
(UTC+00:00)

GEOS 3 Rocket - Pass Details

Date: 17 November 2019
Orbit: 786 x 833 km, 115.0° (Epoch: 09 December)

Event Time Altitude Azimuth Distance (km) Brightness Sun altitude
Exits shadow 16:56:55 17° 52° (NE) 1,962 5.1 -13.9°
Maximum altitude 17:00:54 57° 127° (SE) 959 3.8 -14.5°
Drops below altitude 10° 17:06:04 10° 206° (SSW) 2,420 6.6 -15.3°
Sets 17:08:26 0° 210° (SSW) 3,355 7.5 -15.7°
